CAPE
0 0 0 0 0 0 0 0 0 0 0 0 1 1 0 0 0 0 0 35 264 328 214 198 265 227 224 460 1288 1417 1430 1432 1354 1253 1372 1440 1506 1638 1743 1691 1652 1638 1557 1658 1710 1674 1945 2072 2302 2400 2384 2433 2378 2552 2732 3033 3182 3406 3046 2992 3076 3133 3031 2753 3017 2828 2482 2394 2828 2846 2666 2453 2688 2945 3198 3620 3548 2908 3059 3388 3838 4258 4457 4318 4200 3806
0 0 0 0 0 0 0 0 0 0 0 0 0 0 0 0 5 2 0 74 338 156 138 134 199 292 312 336 904 1480 1435 1402 1386 1401 1500 1529 1571 1675 1793 1748 1786 1791 1604 1507 1670 1740 1828 2068 2218 2451 2536 2559 2578 2814 3026 3284 3436 3453 3286 3150 3186 3131 3114 2935 2902 2846 2786 2686 2672 2720 2611 2418 2285 2544 2849 3230 3085 2668 2819 3468 4382 4289 4177 4265 4068 3829
0 0 0 0 0 0 0 0 0 0 0 0 0 0 0 1 3 3 23 218 348 167 93 198 234 258 338 425 893 1416 1529 1458 1325 1370 1485 1744 1754 1799 1820 1874 1878 1793 1745 1547 1690 1834 1636 1787 1935 2314 2500 2524 2582 2872 3224 3459 3376 3448 3474 3390 3360 3097 3112 3188 3060 3026 3048 3129 2856 2656 2504 2583 2193 2003 2040 2088 2304 2631 2709 3318 4053 3710 3910 4139 3815 3987
0 0 0 0 0 0 0 0 0 0 0 0 0 0 0 3 0 1 101 226 284 219 82 157 251 285 360 455 561 1053 1366 1517 1411 1316 1448 1653 1904 1916 1863 1929 1925 1898 1974 1816 1813 1670 1470 1517 1810 2031 2421 2554 2552 2717 3145 3424 3609 3716 3811 3740 3646 3432 3338 3170 3194 3162 3294 3357 3436 3444 3244 2932 2355 2085 2176 2426 2607 2734 2973 2847 3109 3299 3328 3472 3074 3624
0 0 0 0 0 0 0 0 0 0 0 0 0 0 0 0 0 0 7 107 200 336 146 229 309 489 334 276 396 781 1096 1196 1322 1300 1398 1610 1772 1950 1915 1856 1970 2007 2214 2169 1892 1522 1325 1438 1588 1938 2375 2484 2564 2607 2830 3291 3459 3732 3968 4020 4060 3795 3588 3399 3251 3530 3428 3501 3612 3761 3720 3110 2800 2705 2567 2648 2658 2584 2668 2608 2758 2925 3179 3135 2757 2471
0 0 0 0 0 0 0 0 0 0 0 0 0 0 0 0 0 6 0 64 162 260 339 135 196 200 173 214 248 476 858 1112 1232 1378 1540 1732 1770 1899 1958 1894 1881 1926 2232 2440 2212 1629 1317 1419 1529 1742 2214 2520 2539 2614 2727 3012 3170 3549 3811 4194 4288 3963 3804 3406 3498 3675 3568 3222 3152 3092 2876 2852 2705 2775 2767 2700 2749 2431 2262 2058 1800 2412 2646 2292 2382 2237
0 0 0 0 0 0 0 0 0 0 0 0 0 0 0 0 0 11 0 10 46 52 219 155 83 126 58 100 184 315 477 1167 1322 1365 1582 1781 1980 1915 2012 1936 1824 1845 1939 2293 2168 1880 1265 1262 1478 1784 2236 2535 2424 2564 2673 2923 3158 3585 3961 4324 4450 4220 3943 3870 3718 3756 3727 3250 3150 3078 2926 2895 2783 2729 2804 2902 2685 2191 1973 2025 2113 2087 2185 2511 2290 1896
0 0 0 0 0 0 0 0 0 0 0 0 0 0 0 0 2 6 0 0 0 0 0 117 191 115 4 13 65 363 461 958 1608 1576 1648 1628 1989 1808 1880 1822 1926 1797 1806 2005 2185 1911 1466 1342 1536 1827 2197 2494 2274 2420 2722 2975 3188 3662 4034 4315 4570 4388 4165 4081 4076 4001 3934 3480 3282 3260 3119 2948 2908 2684 2806 2944 3075 2994 2655 2516 2580 2264 2295 2398 2454 2044
0 0 0 0 0 0 0 0 0 0 0 0 0 0 0 0 0 0 0 0 0 0 2 0 16 23 4 8 114 516 569 878 1536 1662 1744 1671 1782 1993 1796 1623 1735 1769 1735 1752 1946 1891 1703 1378 1526 1822 2219 2360 2165 2129 2645 2999 3232 3556 4016 4293 4506 4569 4433 4438 4558 4426 4285 3988 3500 3416 3322 3266 3092 3071 3000 2702 2693 2858 2902 2912 2771 2695 2418 2537 2553 2329
0 0 0 0 0 0 0 0 0 0 0 0 0 0 0 0 0 0 0 0 1 4 1 6 1 0 6 5 30 666 442 584 849 1297 1566 1791 1678 1794 1835 1640 1573 1762 1839 1677 1645 1804 1744 1558 1526 1809 2067 2184 2168 2197 2543 2934 3279 3564 3933 4239 4480 4544 4586 4476 4809 4722 4716 4474 4070 3636 3495 3463 3404 3188 3069 2868 2626 2871 2966 2923 2901 2635 2438 2012 1964 1926
0 0 0 0 0 0 0 0 0 0 0 0 0 0 0 0 0 0 0 1 8 3 5 0 0 0 1 0 0 172 780 580 148 381 1212 1551 1851 1750 1901 1848 1661 1720 1798 1780 1619 1646 1787 1721 1696 1710 1822 2094 2124 2183 2534 2903 3237 3474 3869 4161 4346 4545 4511 4508 4750 4817 4670 4611 4334 3924 3728 3788 3731 3492 3240 3078 2905 2918 2919 2838 2629 2440 2243 1948 1547 1432
0 0 0 0 0 0 0 0 0 0 0 0 0 0 0 0 0 0 0 4 13 29 6 0 0 0 0 0 0 10 447 432 26 0 50 1022 1667 1934 1933 1850 1704 1663 1862 1914 1776 1662 1698 1923 1920 1804 1856 2100 2432 2426 2556 2788 3113 3341 3652 3996 4373 4465 4478 4545 4592 4666 4594 4530 4502 4403 3964 3964 3964 3700 3316 3356 2966 2845 2964 2826 2755 2252 1965 1839 1576 1241
0 0 0 0 0 0 0 0 0 0 0 0 0 0 0 3 0 2 10 9 10 15 1 0 0 0 1 0 0 0 0 0 0 0 0 1 1019 1766 1980 1952 1812 1670 1715 1987 1972 1872 1816 1937 2020 2004 2205 2530 2786 2795 2790 2778 2756 3198 3583 3857 4126 4390 4396 4420 4495 4620 4579 4557 4434 4498 4111 4051 4064 3880 3678 3674 3437 3263 3120 2986 2817 2262 2035 1973 1555 1339
0 0 0 0 0 0 0 0 0 0 0 0 0 0 0 0 0 0 0 0 4 0 0 0 0 0 34 5 8 0 0 0 0 0 0 5 12 974 1941 2071 1816 1753 1686 1788 1916 1964 1963 2022 2111 2252 2359 2630 2848 2900 2896 2878 2799 3141 3413 3774 3934 4255 4464 4456 4408 4483 4586 4504 4634 4510 4403 4194 4194 4233 4084 3823 3524 3292 3211 3020 2998 2602 2234 2050 1643 1387
0 0 0 0 0 0 0 0 0 0 0 0 0 0 0 0 0 0 0 4 0 1 0 0 0 0 0 1 14 30 38 25 0 0 3 86 442 492 1401 1816 1761 1818 1788 1752 1910 2089 2069 2084 2233 2326 2456 2678 2832 2859 2776 2906 2864 3145 3366 3778 3869 4006 4385 4515 4558 4457 4525 4547 4635 4607 4550 4399 4369 4343 4201 4032 3611 3352 3369 3064 3024 2917 2385 1990 1746 1295
0 0 0 0 0 0 0 0 0 0 0 0 0 0 0 0 0 0 0 0 5 5 2 0 0 0 0 19 255 128 42 18 15 16 36 273 810 952 1216 1480 1568 1584 1732 1777 1876 2018 2210 2332 2448 2420 2518 2649 2838 2917 2727 2876 3014 3101 3380 3676 3944 4010 4208 4427 4548 4588 4534 4566 4574 4595 4709 4558 4419 4290 4204 4126 3890 3700 3500 3303 3186 3086 2666 2139 1862 1417
0 0 0 0 0 0 0 0 0 0 0 0 0 0 0 0 0 0 0 9 21 9 0 0 0 0 0 9 81 90 37 1 0 4 16 90 542 1092 1129 1158 1354 1461 1602 1809 1943 2004 2263 2365 2512 2576 2692 2566 2610 2715 2690 2918 3107 3116 3422 3646 3998 3966 4185 4526 4499 4511 4500 4592 4550 4732 4748 4742 4601 4534 4255 4105 4030 3812 3626 3581 3385 3084 2784 2380 2010 1680
0 0 0 0 0 0 0 0 0 0 0 0 0 0 0 0 0 2 4 16 6 1 0 0 1 3 0 0 36 28 0 0 0 0 0 5 348 962 1061 1082 1208 1350 1512 1744 2077 2284 2348 2381 2552 2540 2546 2594 2627 2651 2795 3005 3134 3228 3364 3598 3851 3981 4112 4368 4505 4497 4471 4524 4716 4771 4773 4826 4663 4506 4250 3968 4147 3988 3790 3661 3471 3070 2722 2387 1980 1650
0 0 0 0 0 0 0 0 0 0 0 0 0 0 0 0 0 0 0 4 5 0 0 0 0 0 0 1 12 0 0 0 0 0 0 0 220 800 988 1142 1154 1270 1395 1624 1828 2214 2483 2438 2489 2672 2452 2435 2681 2872 2989 3083 3256 3227 3385 3543 3660 3865 3991 4191 4269 4382 4498 4566 4513 4634 4753 4810 4716 4528 4294 4084 4072 3967 3658 3373 3324 3010 2575 2353 1926 1436
0 0 0 0 0 0 0 0 0 0 0 0 0 0 0 0 0 0 0 0 0 0 0 0 0 0 0 0 1 2 1 0 0 0 0 0 104 1042 1114 1121 1330 1408 1404 1478 1706 2068 2395 2428 2422 2485 2454 2424 2646 2858 2890 2906 2922 2981 3223 3517 3638 3804 4024 4120 4356 4410 4462 4546 4408 4550 4656 4820 4774 4706 4446 4242 4031 3760 3442 3386 3193 2914 2436 2180 1616 1319
0 0 0 0 0 0 0 0 0 0 0 0 0 0 0 0 0 0 0 0 0 1 0 0 0 0 0 0 0 0 0 0 0 0 0 0 0 20 1042 1100 1410 1658 1549 1535 1759 1916 2177 2312 2336 2339 2468 2468 2550 2846 2789 2688 2801 2827 2969 3323 3459 3752 3918 3930 4210 4344 4518 4435 4570 4604 4757 4736 4843 4720 4296 4055 3484 3307 3440 3393 3036 2726 2287 1881 1394 966
0 0 0 0 0 0 0 0 0 0 0 0 0 0 0 0 0 0 0 0 0 0 0 0 0 0 0 0 0 0 0 0 0 0 0 0 0 0 342 1284 1584 1891 1854 1782 1772 1838 2003 2205 2244 2261 2454 2486 2485 2693 2667 2619 2713 2763 2898 3094 3318 3322 3575 3617 4019 4397 4472 4487 4517 4542 4780 4664 4766 4568 4012 3563 3393 3218 3258 3224 2904 2640 2142 1882 1413 836
0 0 0 0 0 0 0 0 0 0 0 0 0 0 0 0 0 0 0 0 0 0 0 0 0 0 0 0 0 0 0 0 0 0 0 0 0 0 1149 1022 1561 1904 1830 1688 1697 1546 1709 2159 2186 2206 2498 2654 2647 2856 2834 2764 2714 2874 2904 3037 3328 3314 3494 3448 3882 4282 4616 4638 4673 4607 4660 4695 4508 4112 3661 3290 3020 2856 3142 3090 2866 2332 1996 1726 1302 1032
0 0 0 0 0 0 0 0 0 0 0 0 0 0 0 0 0 0 0 0 0 0 0 0 0 0 0 0 0 0 0 0 0 0 0 0 0 104 1040 1078 1557 2041 1984 1667 1604 1287 1478 2040 2328 2409 2605 2833 2910 3046 3085 2938 2915 2976 2979 2960 3204 3270 3362 3419 3554 4087 4583 4692 4552 4616 4868 4589 4184 3691 3265 2918 2869 2768 3037 2825 2740 2309 1964 1427 992 923
0 0 0 0 0 0 0 0 0 0 0 0 0 0 0 0 0 0 0 0 0 0 0 3 0 0 0 31 926 445 0 0 0 0 0 180 34 201 1588 1587 1363 2036 2221 1852 1666 1516 1738 2124 2504 2760 2890 3219 3257 3222 3386 3270 3066 3034 3194 3048 2997 3260 3414 3573 3537 3882 4491 4592 4470 4508 4678 4318 3865 3410 3096 2680 2518 2959 2936 2704 2625 2353 1946 1428 928 900
0 0 0 0 0 0 0 0 0 0 0 0 0 0 0 0 0 0 0 0 0 0 1 0 0 0 0 52 0 57 310 35 24 0 0 0 200 1364 1943 2160 2226 2350 2364 1926 1780 1733 1946 2524 2892 3063 3193 3522 3487 3446 3622 3509 3278 3145 3270 3308 3129 3265 3515 3602 3612 3785 4290 4515 4316 4450 4376 4154 3705 3240 3076 2922 2830 2892 2848 2671 2542 2141 1730 1248 872 894
0 0 0 0 0 0 0 0 0 0 0 0 0 0 0 0 0 0 0 0 0 0 0 0 0 2 3 0 0 0 18 0 0 0 0 236 726 964 2423 2385 2224 2114 2348 1804 2073 2118 2463 3039 3333 3498 3757 3826 3487 3552 3708 3600 3470 3415 3628 3601 3338 3419 3650 3836 3807 3970 4421 4657 4314 4186 4180 4136 3498 3170 3032 2740 2866 2961 2765 2508 2074 1818 1526 858 667 687
8 2 0 0 0 0 0 0 0 0 0 0 0 0 0 0 0 0 0 0 0 0 0 0 0 0 0 0 0 0 0 0 0 0 0 0 1077 1503 1900 2792 1523 1926 1829 2049 2340 2572 2964 3359 3662 3879 4018 3817 3667 3648 3733 3672 3668 3630 3840 3858 3647 3517 3590 3863 4158 4352 4694 4770 4326 4146 4208 3922 3433 3210 2941 2746 2981 2915 2726 2442 2028 1902 1272 456 549 263
225 65 11 0 0 0 0 0 0 0 0 0 0 0 0 0 0 0 0 0 0 0 0 0 0 0 0 0 0 0 0 0 0 0 0 0 0 1974 2862 2410 1772 1607 2058 2076 2588 2800 2967 3306 3793 3887 3776 3738 3641 3788 3815 3810 3716 3872 4030 4012 3867 3603 3777 4166 4475 4639 4793 4790 4429 4232 4267 4016 3478 3239 2876 2607 2794 2911 2642 2204 2059 1632 1180 848 538 423
342 224 54 1 0 0 0 0 0 0 0 0 0 0 0 0 0 0 0 0 0 0 0 0 0 0 0 0 0 0 0 0 0 0 0 8 238 1943 1940 2485 1749 1580 1768 2224 2730 2769 2990 3339 3758 3686 3688 3753 3585 3664 3697 3716 3983 3994 4129 4051 3957 3884 3981 4279 4632 4858 4900 4667 4385 4166 4071 3466 3464 3016 2662 2518 2584 2658 2466 2153 1914 1745 1658 1396 823 272
59 88 4 2 0 0 0 0 0 0 0 0 0 0 0 0 0 0 0 0 0 0 0 0 0 0 0 0 0 0 0 0 0 0 0 0 300 758 1583 1704 1816 1573 1654 2334 2859 2847 3027 3054 3462 3695 3675 3636 3578 3828 3808 4045 4028 4036 3924 4090 4192 4195 4137 4366 4857 5004 4774 4372 4015 3918 3882 3739 3594 3058 2614 2539 2478 2661 2436 2052 1930 1686 1599 960 815 747
0 120 65 25 18 4 0 0 0 0 0 0 0 0 0 0 0 0 0 0 0 0 0 0 0 0 0 0 0 0 0 0 0 0 0 13 0 663 1801 1616 1833 2093 1815 2226 2672 2778 2877 2889 3499 3686 3690 3713 3854 4084 4143 4241 4238 4188 3996 4156 4196 4220 4120 4264 4678 4738 4719 4258 4035 3605 3722 3453 3300 2878 2521 2491 2442 2435 2388 2058 1866 1738 1667 1106 923 984
44 95 144 85 21 36 0 0 0 0 0 0 0 0 0 0 0 0 0 0 0 0 0 0 0 0 0 0 0 0 0 0 9 93 264 364 1982 1757 1770 1932 1904 2210 2167 2463 2805 2924 2869 2935 3377 3626 3526 3730 3902 4146 4084 4333 4144 4297 4135 4179 4269 4287 4224 4199 4366 4745 4762 4467 4136 3967 3506 3082 2948 2798 2722 2596 2182 2421 2010 2138 2117 1922 1795 1371 1079 1040
114 104 170 235 172 161 18 0 0 0 0 0 0 0 0 0 0 0 0 0 0 0 0 0 0 0 0 0 0 0 0 0 132 872 807 1191 2510 3246 2085 1746 1926 1951 2150 2339 2761 2864 2906 2963 3124 3327 3458 3827 3998 4068 3917 4038 4177 4248 4101 4141 4218 4280 4292 4455 4386 4569 4670 4553 4035 3695 3595 3092 2678 2696 2521 2346 2339 2342 1889 1990 2082 2049 1859 1598 1410 1337
74 95 94 105 286 294 230 27 11 5 0 0 138 68 0 0 0 0 0 0 0 0 0 0 0 0 0 0 0 0 4 14 216 768 1871 1316 1810 1789 2544 2056 2218 2198 2326 2492 2884 2742 3109 2974 2916 3255 3424 3612 3737 3787 3771 3885 4001 4173 4103 4191 4310 4355 4365 4410 4332 4432 4606 4439 3924 3537 3229 2757 2706 2688 2410 2218 2208 2226 1955 1774 1930 1912 1822 1717 1654 1361
207 76 189 129 200 285 109 69 24 21 2 69 50 147 132 60 10 0 0 0 0 0 0 0 0 0 0 0 0 0 7 1274 1352 1647 1510 1157 1058 1002 888 1359 2066 1870 2096 2387 2798 2567 2823 2603 3043 3226 3522 3593 3544 3535 3587 3683 3638 3953 4144 4172 4244 4332 4355 4419 4258 4395 4474 4349 3854 3500 3326 3051 2737 2641 2492 2225 2153 2012 1867 1791 1810 1841 1816 1737 1664 1491
39 300 88 168 166 252 300 221 60 65 19 17 151 731 628 728 498 228 23 0 0 0 0 0 0 0 0 0 0 234 952 289 348 376 603 456 689 612 520 892 1240 1659 1689 1892 2120 2393 2957 3037 3158 3302 3474 3303 3019 2846 2756 2997 3315 3945 4064 4033 3894 4264 4184 4262 4203 4344 4353 3932 3704 3234 3205 2889 2650 2560 2445 2292 2112 1924 1811 1893 1783 1779 1767 1763 1720 1614
0 55 87 100 196 100 148 244 75 140 194 303 442 593 535 442 507 506 381 184 150 0 0 0 0 0 0 0 0 563 408 130 52 4 363 530 857 870 726 962 1052 1271 1415 2095 2748 3112 2978 2789 2682 3202 2648 2686 2474 2546 2816 2986 3396 3837 4084 3789 3957 4133 4148 4129 4199 4106 4147 3958 3690 3164 2980 2784 2502 2457 2337 2144 1952 1897 1778 1685 1750 1772 1791 1723 1750 1662
12 14 107 41 124 125 144 99 26 267 276 776 870 354 496 415 465 418 195 194 95 45 39 0 0 0 0 0 105 680 239 32 0 14 332 1005 570 546 818 1213 1599 1890 2265 2210 2276 2274 2313 2581 2760 2882 3057 3005 2938 2953 3142 3321 3807 4036 4004 3787 3727 3725 3902 3956 4056 3988 4064 3936 3579 2993 2705 2702 2581 2423 2255 2148 1949 1678 1689 1753 1778 1768 1720 1702 1647 1668
114 60 68 0 8 76 106 156 27 248 42 632 543 524 424 614 225 316 296 104 1221 1079 979 138 23 6 38 56 670 708 275 31 0 36 1553 1122 570 784 1202 1400 1578 1699 1939 2220 2398 2996 3700 3855 3513 3132 3243 3428 3802 3749 3765 3810 3892 3848 3508 3517 3655 3707 3832 3776 3944 3919 3992 3772 3338 2737 2636 2441 2392 2364 2205 2176 1982 1948 1866 1717 1716 1631 1642 1664 1574 1428
148 11 4 0 0 0 12 19 26 133 726 417 721 562 505 466 686 727 326 532 1048 1408 1000 1056 1136 531 517 734 882 644 379 41 1035 1754 1027 850 1177 1672 1893 2269 2605 2424 2282 2369 3096 3627 3908 3567 3319 3183 3415 4144 3798 3342 3376 3383 3656 3949 4004 3985 3818 3807 3701 3764 3950 4034 3801 3635 3049 2410 2600 2411 2255 2136 2002 2038 1955 1649 1643 1648 1586 1538 1516 1501 1260 1040
258 196 67 4 0 0 2 0 60 156 534 475 688 574 559 316 436 642 1016 756 1375 1206 1294 857 625 645 859 1104 984 599 826 1553 1332 1370 1752 2032 2398 2292 2029 2020 2118 2430 2790 3168 3188 2886 2915 3558 4257 4194 3948 3932 3644 3495 3679 3936 4159 4242 4221 3981 3823 3771 3599 3816 3929 3835 3711 3465 2920 2311 2404 2164 1862 1833 1890 1965 1625 1623 1565 1494 1386 1314 1228 1225 1091 988
255 37 22 12 4 0 0 41 42 12 493 402 605 890 843 829 1066 981 876 1292 1153 1266 1255 1630 1133 894 690 912 836 1312 1581 1944 2065 2156 2406 2721 2842 2854 2778 2847 2942 2862 3028 3366 3539 3240 3194 3230 3224 3305 3494 3586 3749 3886 4073 4294 4357 4167 4009 4022 4007 3869 3880 3681 3711 3569 3450 3134 2656 2115 2305 2202 1930 1693 1630 1780 1622 1620 1527 1425 1334 1183 1042 918 779 680
290 85 1 0 2 7 31 83 44 187 902 710 637 693 867 520 375 593 749 1208 1017 1188 1488 1588 1982 1769 1933 2050 2115 2388 3105 3516 3611 3417 3351 3330 3336 3238 2887 2408 2356 2525 2380 2320 2758 3010 3235 3498 3488 3441 3481 3609 3921 4098 4122 4276 3919 3939 4125 4313 3958 3644 3506 3551 3458 3070 2674 2547 2335 2342 2239 2104 1843 1520 1665 1646 1580 1512 1421 1361 1231 1084 940 768 689 648
916 622 1114 242 170 14 2 0 834 1080 780 609 813 671 497 374 397 520 579 723 886 976 1235 1506 1786 2050 2302 2595 2732 2694 2613 2718 2690 2508 2447 2296 2233 2571 3068 3243 3054 2946 3006 3069 3105 3405 3619 3634 3573 3408 3385 3477 3681 3891 3944 3862 3915 4050 4317 3745 3322 3208 3264 3202 3082 2758 2578 2288 2080 2203 2120 1879 1691 1601 1674 1574 1448 1338 1307 1160 1054 1034 836 832 881 843
484 630 1371 533 852 1177 874 1496 1246 1155 540 377 512 436 357 377 460 499 466 600 443 633 776 1053 1254 1454 1570 1719 1849 1891 1898 1900 1910 1950 2182 2553 3104 3368 3371 3341 3327 3338 3660 4010 4206 4038 3801 3741 3697 3558 3254 3144 3225 3371 3816 3925 4023 4238 3662 3136 3119 3081 3162 2860 2583 2396 2221 2090 1962 1914 1910 1851 1623 1640 1587 1519 1311 1226 1232 1022 1002 1075 1019 861 863 848
482 366 590 516 888 82 280 786 1334 1342 1293 346 275 321 90 100 505 548 659 704 670 663 659 725 1002 1050 1428 1384 1220 1301 1320 1424 1575 1760 1886 1894 1846 1884 1966 2276 2605 2964 3458 3946 3982 3782 3652 3366 3038 2927 2955 2894 2890 2924 3009 3296 3559 3415 2970 2809 2812 2800 2844 2532 2344 2107 1984 2110 1910 1819 1854 1814 1406 1420 1440 1367 1249 1192 1096 1015 882 1054 1038 1011 868 670
818 217 693 1064 978 340 1206 1102 1145 730 678 480 327 102 100 142 433 524 610 615 638 663 821 732 679 684 869 1389 1522 1133 1032 1144 1363 1447 1560 1837 2025 2238 2482 2490 2492 2524 2764 3035 3095 3110 3199 3279 3251 2992 2793 2754 2658 2627 2613 2708 2778 2624 2437 2356 2410 2570 2615 2352 2202 1928 1899 1900 1719 1780 1670 1706 1515 1238 1298 1248 1194 1117 1066 1048 1074 991 900 877 918 857
462 231 1080 655 1005 1200 710 1061 681 470 99 10 46 198 53 192 402 413 496 570 500 502 407 402 506 440 474 814 978 1122 1276 1315 1303 1463 1621 1898 2049 2214 2383 2363 2466 2646 2682 2689 2898 3130 3037 2921 2830 2657 2502 2530 2683 2657 2704 2632 2509 2461 2529 2324 2340 2112 2317 2220 1919 1927 2084 1905 1780 1708 1654 1507 1397 1104 1185 1224 1162 1020 937 928 778 690 739 1077 1204 1066
235 719 406 512 813 1063 885 986 788 538 262 0 12 18 33 66 113 106 117 262 433 507 394 378 246 376 374 124 550 660 695 748 846 1017 1116 1596 2122 2410 2398 2368 2434 2401 2344 2440 2466 2661 2738 2756 2666 2524 2562 2678 2872 2800 2744 2610 2431 2296 2159 2193 2146 2202 2107 1895 1719 1759 1737 1580 1495 1273 1262 1342 1367 1386 1158 1257 1241 1063 872 728 600 474 603 665 778 864
109 208 386 948 1135 848 418 784 528 609 439 4 0 0 1 18 91 87 148 128 103 126 124 102 95 70 135 163 19 28 366 463 474 529 679 962 1341 1660 1964 2116 2052 2066 2172 2311 2346 2384 2594 2742 2658 2550 2589 2668 2774 2739 2610 2317 2102 2082 1776 1883 1912 1846 1850 1616 1591 1350 1408 1322 1151 1062 1089 1093 1185 1453 1181 1248 1322 1140 904 690 537 503 502 628 690 649
Wind_Speed
nan nan nan nan nan nan nan nan nan nan nan nan nan nan nan nan nan nan nan nan 4 8 9 8 7 8 7 4 3 0 1 5 7 8 7 9 10 10 10 10 10 10 10 8 9 9 8 8 5 5 4 4 5 5 5 5 6 6 5 5 5 5 5 4 6 7 7 7 6 5 7 7 8 8 8 7 8 8 8 9 10 10 10 11 11 13
nan nan nan nan nan nan nan nan nan nan nan nan nan nan nan nan nan nan nan nan 9 11 12 11 10 9 9 9 6 3 1 4 6 8 9 10 10 9 11 11 11 10 6 8 7 8 8 6 7 5 3 4 6 5 6 6 7 6 6 5 5 5 5 5 6 6 6 5 5 5 6 7 6 7 7 7 8 9 9 10 11 12 12 13 14 15
nan nan nan nan nan nan nan nan nan nan nan nan nan nan nan nan nan nan nan 15 14 13 nan 12 11 11 9 9 9 5 1 1 4 6 7 8 9 8 9 11 11 10 8 8 9 9 8 9 8 5 3 3 5 5 6 6 6 6 5 4 4 5 6 6 6 6 5 5 5 5 5 5 5 5 5 6 7 8 9 10 11 12 13 15 16 17
nan nan nan nan nan nan nan nan nan nan nan nan nan nan nan nan nan nan 13 15 15 16 nan 15 14 16 14 12 9 6 4 2 2 4 5 5 7 8 9 9 9 10 10 10 11 11 10 9 8 6 4 4 4 3 4 6 7 6 5 5 5 5 6 5 6 5 5 5 6 6 5 5 4 5 8 8 8 8 9 11 11 12 14 16 16 18
nan nan nan nan nan nan nan nan nan nan nan nan nan nan nan nan nan nan nan 16 19 17 22 22 20 19 15 13 10 8 6 4 2 2 3 4 4 5 5 6 8 10 10 10 11 10 11 11 10 9 7 5 4 4 4 5 5 4 6 6 6 5 6 5 6 7 6 6 6 6 6 5 6 6 8 9 10 12 12 12 14 15 16 17 17 18
nan nan nan nan nan nan nan nan nan nan nan nan nan nan nan nan nan nan nan nan 21 22 19 18 21 18 13 11 11 10 7 5 3 2 2 2 2 3 4 5 6 8 9 10 11 11 11 11 10 9 9 8 6 6 5 4 5 4 4 6 6 4 5 5 7 8 7 6 6 7 7 9 10 10 12 13 13 14 15 15 15 18 18 18 18 19
nan nan nan nan nan nan nan nan nan nan nan nan nan nan nan nan nan nan nan nan nan nan 21 18 nan 18 nan 14 10 8 7 5 5 3 3 3 3 3 2 3 5 7 8 10 9 10 11 12 12 11 10 10 9 8 7 6 5 6 5 5 6 5 4 5 7 9 8 7 7 8 9 10 11 12 13 14 15 15 16 17 18 19 20 21 21 21
nan nan nan nan nan nan nan nan nan nan nan nan nan nan nan nan nan nan nan nan nan nan nan 20 20 19 nan nan nan 14 11 9 5 3 3 4 6 6 5 5 6 7 8 9 10 10 11 12 13 13 12 10 9 9 9 8 8 9 8 8 7 6 5 6 7 9 9 8 9 9 10 11 12 13 15 17 18 19 19 21 21 21 21 22 22 20
nan nan nan nan nan nan nan nan nan nan nan nan nan nan nan nan nan nan nan nan nan nan nan nan nan nan nan nan 22 19 14 11 4 2 3 7 7 7 8 8 9 9 9 9 9 10 11 12 12 12 12 11 10 10 10 9 9 10 10 10 10 9 9 8 10 11 11 11 11 11 12 12 13 14 15 17 20 20 21 21 21 20 20 21 20 19
nan nan nan nan nan nan nan nan nan nan nan nan nan nan nan nan nan nan nan nan nan nan nan nan nan nan nan nan nan 16 12 9 6 3 4 6 6 6 7 9 10 9 9 9 9 9 10 10 11 12 12 12 10 10 11 11 11 11 11 12 12 12 11 11 13 14 14 14 13 13 13 14 15 16 17 17 19 21 20 19 19 18 19 18 17 17
nan nan nan nan nan nan nan nan nan nan nan nan nan nan nan nan nan nan nan nan nan nan nan nan nan nan nan nan nan 16 13 6 7 8 5 3 2 5 6 7 8 9 10 9 10 10 10 10 11 12 13 13 13 12 13 13 12 13 13 14 14 14 13 13 15 16 16 16 15 15 16 16 17 18 18 18 19 19 19 17 17 18 18 17 16 17
nan nan nan nan nan nan nan nan nan nan nan nan nan nan nan nan nan nan nan nan nan nan nan nan nan nan nan nan nan nan 10 9 nan nan nan 4 0 2 2 2 5 7 8 9 9 10 11 12 12 13 13 14 15 16 15 14 15 15 16 17 17 16 15 14 15 17 17 17 17 16 17 17 17 17 18 18 18 18 17 17 17 17 17 17 18 17
nan nan nan nan nan nan nan nan nan nan nan nan nan nan nan nan nan nan nan nan nan nan nan nan nan nan nan nan nan nan nan nan nan nan nan nan 6 4 4 4 6 6 8 8 8 8 10 12 13 14 15 16 17 17 18 17 16 17 18 19 19 17 16 15 16 17 18 18 18 18 18 17 16 17 17 17 16 16 15 15 17 17 17 19 20 20
nan nan nan nan nan nan nan nan nan nan nan nan nan nan nan nan nan nan nan nan nan nan nan nan nan nan nan nan nan nan nan nan nan nan nan nan nan 12 9 11 13 13 13 11 9 8 9 12 14 16 17 17 16 17 18 18 17 17 17 18 18 17 17 17 17 19 19 19 19 19 18 17 16 16 16 15 14 15 14 14 17 18 18 21 21 22
nan nan nan nan nan nan nan nan nan nan nan nan nan nan nan nan nan nan nan nan nan nan nan nan nan nan nan nan nan nan nan nan nan nan nan nan 14 14 12 13 17 17 17 15 11 9 10 13 16 17 18 17 16 17 17 17 17 17 17 18 19 18 19 20 21 20 20 19 19 18 17 16 16 16 15 15 14 14 16 17 19 22 21 23 24 24
nan nan nan nan nan nan nan nan nan nan nan nan nan nan nan nan nan nan nan nan nan nan nan nan nan nan nan nan 23 19 nan nan nan nan nan 16 15 15 14 13 15 17 19 17 13 11 13 15 17 16 16 15 15 18 17 19 18 18 18 19 20 21 21 22 22 20 19 18 18 17 16 16 16 15 15 15 16 17 19 19 22 24 25 24 25 26
nan nan nan nan nan nan nan nan nan nan nan nan nan nan nan nan nan nan nan nan nan nan nan nan nan nan nan nan nan nan nan nan nan nan nan nan 14 14 13 13 15 18 19 17 14 13 15 16 17 15 15 15 17 18 18 19 20 20 20 20 21 21 21 21 20 18 17 17 16 16 15 16 16 17 18 18 20 21 23 23 23 23 24 25 26 26
nan nan nan nan nan nan nan nan nan nan nan nan nan nan nan nan nan nan nan nan nan nan nan nan nan nan nan nan nan nan nan nan nan nan nan nan 15 12 12 13 15 18 19 16 14 15 17 20 21 18 15 18 20 20 21 21 21 20 20 21 22 21 20 18 17 17 16 16 15 14 14 15 16 17 19 20 22 24 26 26 25 23 23 25 25 27
nan nan nan nan nan nan nan nan nan nan nan nan nan nan nan nan nan nan nan nan nan nan nan nan nan nan nan nan nan nan nan nan nan nan nan nan 13 9 10 12 12 15 16 14 13 14 17 19 20 19 18 19 20 22 23 22 22 20 19 19 20 21 20 18 16 15 14 14 13 13 15 16 17 18 19 21 23 25 27 27 27 26 25 27 28 29
nan nan nan nan nan nan nan nan nan nan nan nan nan nan nan nan nan nan nan nan nan nan nan nan nan nan nan nan nan nan nan nan nan nan nan nan 14 9 9 7 9 11 13 14 13 14 16 18 21 22 21 21 21 22 22 23 22 21 19 18 17 17 17 17 16 16 15 16 15 15 16 16 17 19 21 23 23 24 27 27 28 29 30 31 31 32
nan nan nan nan nan nan nan nan nan nan nan nan nan nan nan nan nan nan nan nan nan nan nan nan nan nan nan nan nan nan nan nan nan nan nan nan nan nan 7 6 6 7 10 11 12 14 15 16 18 20 20 20 21 22 23 23 22 21 19 18 17 18 17 17 17 17 16 17 16 16 17 17 18 21 22 23 22 22 26 28 30 31 32 34 34 35
nan nan nan nan nan nan nan nan nan nan nan nan nan nan nan nan nan nan nan nan nan nan nan nan nan nan nan nan nan nan nan nan nan nan nan nan nan nan 11 7 6 6 7 8 10 13 14 14 16 19 20 20 22 23 24 22 21 21 19 17 17 16 16 17 17 16 16 16 15 16 17 18 20 22 22 23 23 23 26 30 32 34 36 38 39 40
nan nan nan nan nan nan nan nan nan nan nan nan nan nan nan nan nan nan nan nan nan nan nan nan nan nan nan nan nan nan nan nan nan nan nan nan nan nan 12 7 6 6 8 8 9 12 15 15 17 20 23 23 24 24 24 22 22 21 20 19 17 16 16 16 16 16 16 15 15 17 18 19 22 24 26 26 25 26 29 34 37 39 41 42 43 44
nan nan nan nan nan nan nan nan nan nan nan nan nan nan nan nan nan nan nan nan nan nan nan nan nan nan nan nan nan nan nan nan nan nan nan nan nan 18 13 11 10 10 10 11 11 13 17 19 20 22 24 24 25 25 26 24 22 21 20 19 16 15 15 14 14 15 16 16 18 20 21 23 25 27 28 28 28 29 33 36 39 41 43 44 44 45
nan nan nan nan nan nan nan nan nan nan nan nan nan nan nan nan nan nan nan nan nan nan nan nan nan nan nan nan 38 25 nan nan nan nan nan 17 nan 19 16 15 15 15 15 14 14 15 19 22 23 23 26 27 27 27 27 26 23 20 19 17 15 14 15 15 15 16 18 19 21 22 23 25 26 27 29 31 31 35 37 38 39 41 43 44 44 46
nan nan nan nan nan nan nan nan nan nan nan nan nan nan nan nan nan nan nan nan nan nan nan nan nan nan nan nan nan nan 22 nan nan nan nan nan 16 20 22 20 19 18 17 16 18 18 20 21 22 24 27 29 29 29 29 27 24 20 18 17 16 16 16 16 17 18 20 20 21 23 25 25 26 27 30 34 34 36 37 37 39 42 43 45 46 45
nan nan nan nan nan nan nan nan nan nan nan nan nan nan nan nan nan nan nan nan nan nan nan nan nan nan nan nan nan nan nan nan nan nan nan 12 11 14 19 21 22 20 18 17 20 22 23 22 22 24 28 30 30 30 30 29 25 21 19 19 18 17 17 18 18 19 20 21 22 22 24 25 25 25 28 32 33 35 38 39 41 42 44 45 45 43
nan nan nan nan nan nan nan nan nan nan nan nan nan nan nan nan nan nan nan nan nan nan nan nan nan nan nan nan nan nan nan nan nan nan nan nan 15 12 14 21 23 21 19 20 22 23 23 22 23 25 28 30 31 31 30 28 26 23 21 20 19 18 18 18 19 19 19 19 20 22 23 24 25 26 29 32 33 36 38 39 39 39 41 43 43 43
30 nan nan nan nan nan nan nan nan nan nan nan nan nan nan nan nan nan nan nan nan nan nan nan nan nan nan nan nan nan nan nan nan nan nan nan nan 18 15 15 18 18 19 20 21 23 23 22 22 24 26 29 30 31 30 28 25 23 22 20 19 18 19 19 20 20 20 20 21 22 23 26 28 29 31 32 34 36 39 41 41 41 41 42 41 40
29 28 nan nan nan nan nan nan nan nan nan nan nan nan nan nan nan nan nan nan nan nan nan nan nan nan nan nan nan nan nan nan nan nan nan nan 16 16 14 13 14 16 17 19 22 23 23 20 20 22 25 28 29 30 29 26 25 24 23 21 20 19 18 19 20 22 23 24 25 25 27 30 32 33 32 33 37 39 41 43 44 44 42 42 41 41
nan nan nan nan nan nan nan nan nan nan nan nan nan nan nan nan nan nan nan nan nan nan nan nan nan nan nan nan nan nan nan nan nan nan nan nan 17 14 11 12 14 15 15 18 22 22 22 19 19 22 24 25 27 27 26 25 25 23 22 21 20 19 19 21 23 24 26 27 27 29 31 33 35 35 33 34 38 41 43 45 44 43 42 41 39 39
nan 32 nan nan nan nan nan nan nan nan nan nan nan nan nan nan nan nan nan nan nan nan nan nan nan nan nan nan nan nan nan nan nan nan nan nan nan 14 14 14 13 12 13 16 20 21 21 20 20 23 24 25 26 28 27 27 25 24 21 20 20 20 22 23 25 26 27 28 30 31 34 36 38 36 34 36 39 42 44 46 45 42 43 43 41 36
nan nan 34 nan nan nan nan nan nan nan nan nan nan nan nan nan nan nan nan nan nan nan nan nan nan nan nan nan nan nan nan nan nan nan 23 20 20 15 16 17 15 14 14 17 20 20 19 20 21 23 25 26 27 28 29 29 28 26 23 22 22 24 25 26 27 27 29 30 33 34 35 39 40 37 36 38 40 42 44 46 45 43 44 44 41 37
38 36 36 41 33 31 nan nan nan nan nan nan nan nan nan nan nan nan nan nan nan nan nan nan nan nan nan nan nan nan nan nan 35 33 27 27 26 21 19 21 20 18 18 19 20 20 20 21 22 25 27 28 28 30 31 31 31 29 28 27 28 28 28 28 28 29 30 32 34 35 38 40 39 39 40 41 42 43 45 45 44 43 43 42 41 39
nan nan nan 39 33 32 32 nan nan nan nan nan 33 nan nan nan nan nan nan nan nan nan nan nan nan nan nan nan nan nan nan nan 35 35 33 30 29 25 24 24 23 20 20 21 21 21 22 22 24 29 32 33 34 34 34 33 33 34 33 32 32 32 33 32 31 32 33 34 37 39 40 40 39 41 43 43 43 44 45 45 44 43 42 43 42 41
38 nan 38 37 34 34 35 nan nan nan nan nan nan 41 39 nan nan nan nan nan nan nan nan nan nan nan nan nan nan nan nan 45 46 42 37 33 30 26 25 25 24 22 21 21 22 22 23 23 27 32 37 39 41 39 36 35 35 36 35 34 35 36 37 37 36 36 36 37 40 41 41 41 42 43 45 45 45 46 46 46 47 45 42 41 41 41
nan 40 nan 35 37 38 41 37 nan nan nan nan 38 50 46 43 43 43 nan nan nan nan nan nan nan nan nan nan nan 44 48 44 40 37 31 27 27 26 25 26 27 26 23 22 22 24 27 29 32 37 41 42 41 40 37 36 37 38 38 36 35 38 39 40 40 39 39 39 40 42 44 44 44 45 46 45 46 47 47 48 49 45 42 42 42 42
nan nan nan nan 39 nan 40 40 nan 31 30 46 48 43 43 43 41 42 42 38 34 nan nan nan nan nan nan nan nan 46 49 42 nan nan 28 26 29 30 29 30 31 30 29 29 31 32 32 34 36 42 44 44 42 42 41 40 40 40 39 38 38 40 42 41 42 41 41 41 43 44 46 48 47 47 48 47 47 48 48 49 49 45 42 41 41 40
nan nan 38 nan 37 37 38 nan nan 32 36 47 49 46 43 43 39 42 39 34 nan nan nan nan nan nan nan nan 41 47 41 nan nan nan 29 28 31 33 33 34 34 33 33 32 31 32 34 37 42 46 48 48 47 46 45 44 44 43 41 39 40 42 43 43 43 42 42 43 44 46 48 50 49 48 48 48 49 49 49 50 48 43 39 38 37 37
45 nan nan nan nan nan 38 42 nan 37 nan 40 46 46 43 38 41 36 33 30 44 46 37 28 nan nan nan nan 42 40 37 nan nan nan 33 30 34 37 37 36 35 34 34 36 37 39 41 45 49 50 51 50 50 49 49 47 45 44 42 42 43 45 45 45 45 43 43 44 46 47 50 50 50 49 49 49 51 50 48 48 45 41 39 38 37 36
47 nan nan nan nan nan nan nan nan 39 45 44 44 40 41 37 36 35 32 38 39 36 41 41 38 36 37 39 40 35 33 nan 40 43 36 35 39 42 41 40 39 37 38 38 41 42 44 46 48 50 51 51 50 50 49 48 47 46 44 45 46 48 46 46 46 46 46 48 48 50 52 52 51 50 49 50 52 49 45 44 42 40 38 38 37 34
45 44 nan nan nan nan nan nan nan 41 48 43 41 41 44 41 36 33 46 37 31 35 38 37 36 37 37 36 37 34 40 44 45 40 38 37 39 41 42 42 41 42 44 46 44 43 46 49 52 53 54 52 51 51 50 49 49 47 46 47 50 50 49 49 49 50 50 50 51 52 53 53 53 51 49 52 52 48 41 39 41 39 37 36 36 35
46 nan nan nan nan nan nan nan nan nan 45 45 44 40 48 40 45 42 38 37 39 39 38 40 39 36 34 33 35 39 42 43 44 42 40 41 40 42 45 47 48 49 49 49 50 51 51 51 51 51 51 51 52 51 50 50 50 47 46 49 53 52 52 53 53 53 52 52 52 53 54 56 57 53 50 51 50 43 39 40 41 40 38 36 34 34
47 nan nan nan nan nan nan nan nan 41 46 43 45 41 44 43 40 37 37 36 44 43 41 40 40 36 32 33 37 40 42 45 46 44 44 44 44 45 48 50 51 52 52 53 54 53 53 52 51 51 51 51 51 51 51 51 50 47 49 53 53 54 55 55 54 53 52 52 53 53 54 56 57 52 47 46 44 39 39 42 42 41 40 38 35 35
49 50 52 47 45 nan nan nan 48 50 46 45 46 46 47 46 42 38 34 38 41 45 43 43 41 37 32 33 35 38 39 42 45 45 47 47 48 49 49 50 51 53 54 54 54 53 53 53 53 53 55 54 53 52 50 48 48 49 52 53 52 54 54 55 55 54 54 53 53 53 54 55 53 47 43 42 41 39 40 42 42 41 41 38 36 35
44 45 44 46 45 47 49 47 45 44 45 45 47 50 52 51 46 40 39 40 44 46 46 44 40 36 36 35 36 37 40 42 45 47 48 49 50 52 53 53 55 55 55 54 53 53 55 55 56 56 58 58 56 52 47 44 46 50 50 50 50 52 54 55 55 54 54 54 53 52 52 51 46 41 39 38 39 39 40 41 42 42 41 38 36 36
47 44 38 39 47 nan 36 38 37 40 40 40 49 56 nan 52 47 43 42 43 45 45 46 45 41 40 40 38 37 40 45 47 47 47 48 49 51 53 55 56 57 56 55 55 53 52 53 54 53 54 55 56 53 48 44 44 46 47 47 47 48 49 49 50 51 50 50 50 50 48 46 43 40 38 37 38 40 40 40 41 40 41 40 39 38 37
39 45 39 44 37 32 39 38 40 42 42 42 45 53 nan 50 48 45 45 48 49 46 46 48 50 51 47 45 44 45 49 50 49 47 48 48 49 50 51 52 53 54 55 56 56 55 54 51 51 54 58 60 58 53 47 45 44 44 45 45 44 45 44 45 46 46 45 45 44 43 41 38 39 38 38 40 40 40 40 40 40 40 41 41 41 39
39 37 39 39 32 37 36 35 36 41 nan nan nan 51 nan 45 47 49 51 53 54 53 51 53 57 56 53 51 50 50 52 53 51 51 51 50 50 50 51 51 51 52 53 55 55 55 54 54 55 57 59 61 59 53 46 43 43 45 46 45 44 44 44 45 45 43 43 42 41 40 40 38 39 37 38 40 41 43 44 41 39 39 44 47 42 39
38 38 39 30 28 27 29 28 25 28 32 nan nan nan nan nan 46 50 54 57 58 57 55 57 58 60 59 58 55 54 55 54 54 54 55 52 51 51 51 51 52 54 55 54 54 55 56 57 56 53 51 49 48 45 42 42 46 47 47 45 45 45 45 45 44 42 42 41 40 39 40 38 39 39 38 40 45 45 48 53 52 47 44 47 45 45
41 43 36 34 32 32 32 25 29 31 35 nan nan nan nan nan nan nan 54 56 57 59 59 60 nan nan 64 63 nan nan 58 57 56 54 54 54 53 53 54 54 54 54 54 55 55 55 55 55 54 52 49 46 44 44 44 47 49 48 47 45 45 45 46 45 43 41 41 41 40 40 40 40 38 40 39 42 46 46 48 49 49 49 47 44 39 34
Wind_Direction
nan nan nan nan nan nan nan nan nan nan nan nan nan nan nan nan nan nan nan nan 208 170 144 146 142 143 143 170 185 154 23 66 65 56 57 48 38 25 21 20 23 31 42 37 40 37 35 31 27 28 11 10 7 6 3 356 355 347 337 326 334 317 323 321 328 335 340 347 0 19 31 33 23 25 26 26 24 25 21 18 10 360 357 355 353 349
nan nan nan nan nan nan nan nan nan nan nan nan nan nan nan nan nan nan nan nan 209 175 174 164 158 153 159 154 183 195 345 34 47 54 56 52 42 33 24 20 18 21 27 17 20 26 32 37 26 23 24 11 9 1 1 358 354 350 346 339 323 303 317 326 330 329 339 353 7 14 24 26 22 11 12 13 14 17 10 4 357 357 357 350 349 346
nan nan nan nan nan nan nan nan nan nan nan nan nan nan nan nan nan nan nan 207 198 182 nan 192 167 166 162 167 186 173 140 117 53 59 61 55 47 38 28 25 18 11 6 2 4 6 17 23 26 18 22 13 16 1 355 350 349 346 341 332 318 308 316 325 336 340 349 355 12 17 13 14 5 2 5 6 4 359 1 356 355 356 350 347 346 346
nan nan nan nan nan nan nan nan nan nan nan nan nan nan nan nan nan nan 210 211 208 196 nan 189 179 183 181 170 168 177 153 170 103 76 78 69 52 39 28 20 14 8 358 360 358 0 1 7 13 10 5 6 6 360 347 342 344 333 336 333 327 320 327 328 341 349 357 359 357 3 1 349 347 337 336 349 350 350 350 353 349 345 344 344 343 340
nan nan nan nan nan nan nan nan nan nan nan nan nan nan nan nan nan nan nan 214 209 199 186 184 191 192 182 170 176 177 157 149 148 115 98 94 71 58 40 17 8 3 352 353 355 355 350 354 1 1 354 346 353 360 359 349 341 320 350 344 339 328 330 330 337 347 348 350 357 349 344 338 334 335 334 334 340 343 341 339 336 335 335 337 336 333
nan nan nan nan nan nan nan nan nan nan nan nan nan nan nan nan nan nan nan nan 211 206 203 194 197 187 186 160 157 193 193 140 149 114 66 58 58 56 44 15 5 3 345 346 348 351 349 344 343 346 346 345 341 347 353 350 348 339 333 338 337 329 329 341 350 348 342 345 347 340 335 332 330 332 332 335 333 330 327 328 322 323 328 327 326 324
nan nan nan nan nan nan nan nan nan nan nan nan nan nan nan nan nan nan nan nan nan nan 215 218 nan 188 nan 181 186 195 183 183 187 96 53 7 2 23 16 349 354 352 342 340 343 344 347 339 337 338 337 342 341 336 331 327 325 325 313 321 326 322 325 338 344 345 335 344 338 344 336 329 328 326 323 322 321 317 313 312 315 315 317 319 321 320
nan nan nan nan nan nan nan nan nan nan nan nan nan nan nan nan nan nan nan nan nan nan nan 218 213 196 nan nan nan 210 201 219 207 133 75 33 17 15 4 356 350 343 344 329 339 342 338 336 338 340 335 331 335 329 320 313 307 315 312 308 313 299 305 311 318 331 328 328 327 329 332 326 326 324 319 318 315 314 312 312 315 315 315 317 318 317
nan nan nan nan nan nan nan nan nan nan nan nan nan nan nan nan nan nan nan nan nan nan nan nan nan nan nan nan 208 220 219 233 210 158 74 55 39 29 21 13 5 353 345 343 330 337 332 333 332 327 327 327 332 324 309 303 302 306 308 305 303 301 301 303 315 315 323 319 318 320 320 324 320 321 317 315 316 316 317 319 318 318 318 316 317 320
nan nan nan nan nan nan nan nan nan nan nan nan nan nan nan nan nan nan nan nan nan nan nan nan nan nan nan nan nan 231 214 212 183 164 74 58 49 45 44 24 11 348 338 346 346 331 328 328 324 321 318 316 317 311 301 303 300 301 299 303 305 308 301 303 312 312 317 320 313 315 320 326 321 315 314 318 320 321 321 328 327 326 324 323 320 322
nan nan nan nan nan nan nan nan nan nan nan nan nan nan nan nan nan nan nan nan nan nan nan nan nan nan nan nan nan 236 237 216 193 209 190 141 64 44 49 33 7 350 345 337 344 340 329 325 322 320 322 315 311 301 302 304 302 300 303 305 312 315 306 309 312 315 317 315 314 313 320 325 324 323 319 322 327 324 327 332 332 329 327 323 321 318
nan nan nan nan nan nan nan nan nan nan nan nan nan nan nan nan nan nan nan nan nan nan nan nan nan nan nan nan nan nan 223 203 nan nan nan 207 153 5 53 49 7 349 336 333 335 340 333 326 327 324 325 317 310 305 306 304 302 304 305 307 317 319 318 312 315 318 318 314 317 318 323 325 323 323 322 331 335 334 334 335 329 328 325 322 317 316
nan nan nan nan nan nan nan nan nan nan nan nan nan nan nan nan nan nan nan nan nan nan nan nan nan nan nan nan nan nan nan nan nan nan nan nan 218 263 277 290 283 296 303 299 306 320 329 330 329 331 328 322 317 308 308 308 307 305 306 311 316 317 318 316 318 320 319 317 319 321 324 324 317 323 330 334 336 335 335 333 329 327 326 320 317 316
nan nan nan nan nan nan nan nan nan nan nan nan nan nan nan nan nan nan nan nan nan nan nan nan nan nan nan nan nan nan nan nan nan nan nan nan nan 252 267 274 282 290 292 287 287 305 327 329 329 329 328 326 319 317 311 311 310 304 304 311 314 315 313 312 315 316 316 319 318 320 321 317 313 320 326 330 333 334 330 330 327 328 327 322 323 321
nan nan nan nan nan nan nan nan nan nan nan nan nan nan nan nan nan nan nan nan nan nan nan nan nan nan nan nan nan nan nan nan nan nan nan nan 235 240 247 271 300 312 312 303 294 306 328 332 330 328 330 328 325 325 322 315 315 310 309 311 315 313 311 311 312 311 316 313 318 319 317 312 311 315 318 322 326 327 327 327 330 325 327 325 325 325
nan nan nan nan nan nan nan nan nan nan nan nan nan nan nan nan nan nan nan nan nan nan nan nan nan nan nan nan 215 201 nan nan nan nan nan 221 239 247 251 279 311 331 331 321 318 322 330 328 328 330 333 333 330 332 328 327 320 317 314 313 315 316 312 311 311 311 312 312 312 320 317 315 313 309 312 314 318 320 323 331 328 325 326 326 325 323
nan nan nan nan nan nan nan nan nan nan nan nan nan nan nan nan nan nan nan nan nan nan nan nan nan nan nan nan nan nan nan nan nan nan nan nan 232 246 256 288 320 336 338 331 328 327 331 328 331 334 335 332 334 332 332 328 324 325 319 317 320 321 318 317 316 312 306 308 313 317 316 312 313 314 317 315 321 324 325 329 326 324 326 325 323 318
nan nan nan nan nan nan nan nan nan nan nan nan nan nan nan nan nan nan nan nan nan nan nan nan nan nan nan nan nan nan nan nan nan nan nan nan 231 248 264 292 314 329 335 333 325 322 331 339 340 338 334 334 333 334 332 331 328 325 323 322 324 323 326 322 317 314 310 310 313 312 313 312 313 315 318 318 322 325 325 324 320 322 326 325 319 314
nan nan nan nan nan nan nan nan nan nan nan nan nan nan nan nan nan nan nan nan nan nan nan nan nan nan nan nan nan nan nan nan nan nan nan nan 238 252 268 296 309 316 318 323 323 312 322 338 342 335 332 332 330 328 329 330 330 328 327 326 327 328 329 326 315 314 305 305 296 297 305 313 315 317 317 321 324 324 324 324 319 319 320 315 314 314
nan nan nan nan nan nan nan nan nan nan nan nan nan nan nan nan nan nan nan nan nan nan nan nan nan nan nan nan nan nan nan nan nan nan nan nan 225 228 240 271 291 298 307 317 321 322 326 335 339 334 328 328 329 326 326 332 333 337 333 327 326 322 318 317 315 309 306 304 301 299 304 314 319 321 321 322 327 326 322 320 315 315 314 313 315 316
nan nan nan nan nan nan nan nan nan nan nan nan nan nan nan nan nan nan nan nan nan nan nan nan nan nan nan nan nan nan nan nan nan nan nan nan nan nan 197 233 258 279 289 303 313 317 323 325 325 324 321 320 322 322 327 332 336 337 332 328 322 315 317 319 315 310 305 303 308 312 319 325 326 327 323 323 328 329 321 317 316 316 315 313 316 318
nan nan nan nan nan nan nan nan nan nan nan nan nan nan nan nan nan nan nan nan nan nan nan nan nan nan nan nan nan nan nan nan nan nan nan nan nan nan 189 224 249 250 266 289 295 291 295 302 304 305 306 309 316 324 330 330 328 331 332 320 314 314 312 315 311 307 307 308 311 323 326 330 324 321 320 320 324 330 325 320 320 321 321 321 321 322
nan nan nan nan nan nan nan nan nan nan nan nan nan nan nan nan nan nan nan nan nan nan nan nan nan nan nan nan nan nan nan nan nan nan nan nan nan nan 208 219 253 254 261 281 287 275 277 285 289 292 299 307 315 317 324 326 324 324 327 320 312 312 312 312 313 310 308 310 313 325 325 322 315 313 317 318 323 330 328 326 325 322 323 324 322 321
nan nan nan nan nan nan nan nan nan nan nan nan nan nan nan nan nan nan nan nan nan nan nan nan nan nan nan nan nan nan nan nan nan nan nan nan nan 192 201 223 246 257 261 273 283 278 274 280 285 284 294 299 304 311 319 321 320 315 316 319 312 314 312 311 309 309 309 311 318 323 319 315 313 316 317 322 324 332 334 333 328 322 324 325 323 321
nan nan nan nan nan nan nan nan nan nan nan nan nan nan nan nan nan nan nan nan nan nan nan nan nan nan nan nan 245 231 nan nan nan nan nan 179 nan 185 203 219 236 254 263 274 283 281 280 288 293 289 291 294 299 304 308 313 315 312 310 311 308 302 307 306 306 309 312 318 324 322 315 316 318 321 323 327 336 345 343 339 332 327 329 327 325 322
nan nan nan nan nan nan nan nan nan nan nan nan nan nan nan nan nan nan nan nan nan nan nan nan nan nan nan nan nan nan 246 nan nan nan nan nan 182 190 213 217 230 244 254 266 274 278 288 292 288 282 287 288 295 298 301 307 312 311 307 308 304 302 303 308 308 315 318 321 324 320 320 322 322 327 333 337 344 348 344 340 335 333 331 329 326 323
nan nan nan nan nan nan nan nan nan nan nan nan nan nan nan nan nan nan nan nan nan nan nan nan nan nan nan nan nan nan nan nan nan nan nan 203 186 196 219 222 224 233 244 258 267 269 278 289 297 292 288 288 293 295 297 305 309 308 304 307 307 303 304 307 312 316 320 323 325 322 324 324 326 330 339 339 340 343 342 340 339 338 335 331 329 328
nan nan nan nan nan nan nan nan nan nan nan nan nan nan nan nan nan nan nan nan nan nan nan nan nan nan nan nan nan nan nan nan nan nan nan nan 200 185 215 232 232 235 240 249 261 274 287 291 287 285 287 289 290 292 295 302 305 305 305 305 304 304 303 302 311 318 322 324 326 325 325 327 326 329 334 338 337 340 340 337 337 337 333 332 333 332
239 nan nan nan nan nan nan nan nan nan nan nan nan nan nan nan nan nan nan nan nan nan nan nan nan nan nan nan nan nan nan nan nan nan nan nan nan 200 222 224 234 243 250 259 265 271 277 286 288 288 290 290 291 294 299 301 302 300 299 298 299 302 306 306 312 317 319 321 324 328 326 327 323 326 330 336 336 335 333 332 333 333 332 333 333 328
239 240 nan nan nan nan nan nan nan nan nan nan nan nan nan nan nan nan nan nan nan nan nan nan nan nan nan nan nan nan nan nan nan nan nan nan 203 196 213 228 230 243 258 267 269 270 272 280 286 291 290 289 294 297 300 299 298 299 299 299 300 304 307 310 316 318 318 320 320 323 328 333 324 325 330 335 337 334 332 331 330 330 332 332 329 325
nan nan nan nan nan nan nan nan nan nan nan nan nan nan nan nan nan nan nan nan nan nan nan nan nan nan nan nan nan nan nan nan nan nan nan nan 194 189 215 222 225 239 258 266 263 263 266 275 285 289 290 294 299 302 300 295 294 295 297 293 295 302 309 315 318 320 321 322 322 324 325 324 322 320 330 336 340 332 331 331 329 330 330 326 323 323
nan 238 nan nan nan nan nan nan nan nan nan nan nan nan nan nan nan nan nan nan nan nan nan nan nan nan nan nan nan nan nan nan nan nan nan nan nan 182 209 216 222 238 251 260 259 259 265 278 290 297 299 300 302 302 299 296 296 297 297 291 292 297 304 311 316 321 324 325 326 329 326 322 318 323 332 335 338 336 331 329 328 328 327 328 328 321
nan nan 238 nan nan nan nan nan nan nan nan nan nan nan nan nan nan nan nan nan nan nan nan nan nan nan nan nan nan nan nan nan nan nan 236 233 230 210 209 211 211 219 227 242 253 261 271 284 292 294 292 293 298 299 300 298 298 300 299 295 294 294 301 310 316 319 322 325 326 325 327 323 323 328 328 331 335 334 333 329 328 327 326 328 326 319
237 238 237 234 235 236 nan nan nan nan nan nan nan nan nan nan nan nan nan nan nan nan nan nan nan nan nan nan nan nan nan nan 251 251 243 233 230 225 217 215 211 211 218 227 240 250 261 267 272 279 284 285 291 294 294 296 297 295 295 295 297 301 302 308 314 318 320 321 322 324 323 322 325 326 325 328 329 328 332 329 328 326 323 322 321 319
nan nan nan 236 238 236 243 nan nan nan nan nan 237 nan nan nan nan nan nan nan nan nan nan nan nan nan nan nan nan nan nan nan 243 240 240 232 222 218 222 218 216 218 220 227 240 252 260 268 271 275 280 284 286 285 286 288 289 290 294 298 300 299 301 304 309 313 317 319 322 324 324 322 322 321 322 324 324 323 328 332 327 324 322 320 319 318
233 nan 239 238 238 236 235 nan nan nan nan nan nan 234 230 nan nan nan nan nan nan nan nan nan nan nan nan nan nan nan nan 244 241 237 230 223 218 213 216 215 218 223 224 228 243 252 261 270 272 273 275 275 278 279 280 283 288 291 295 298 298 297 299 301 306 309 312 317 321 324 323 319 318 320 321 323 321 322 328 330 330 322 317 315 313 309
nan 235 nan 239 240 240 241 241 nan nan nan nan 243 240 232 231 226 226 nan nan nan nan nan nan nan nan nan nan nan 243 246 244 240 236 233 224 220 214 210 212 219 227 227 230 241 252 261 265 262 261 264 268 273 276 278 281 285 289 293 296 294 293 296 300 303 306 309 312 316 319 320 317 315 317 318 318 319 322 325 326 325 316 306 306 308 306
nan nan nan nan 241 nan 242 237 nan 245 245 250 247 245 234 227 221 223 234 238 246 nan nan nan nan nan nan nan nan 247 247 244 nan nan 232 229 230 225 218 214 222 229 232 236 242 250 258 262 261 259 263 269 273 275 275 280 283 287 290 291 288 288 292 296 299 302 306 308 311 315 317 317 316 316 317 317 319 320 321 322 320 309 300 305 305 306
nan nan 237 nan 242 245 245 nan nan 239 243 244 243 237 231 228 224 224 231 237 nan nan nan nan nan nan nan nan 249 250 245 nan nan nan 237 237 233 231 228 226 228 233 237 240 245 253 258 260 262 263 265 270 273 274 276 278 281 283 286 286 285 286 289 292 296 300 304 306 307 311 314 314 313 314 315 316 315 315 318 318 316 306 301 303 303 303
235 nan nan nan nan nan 243 247 nan 241 nan 243 236 234 229 230 235 233 233 240 236 223 227 248 nan nan nan nan 253 251 248 nan nan nan 243 238 237 233 230 230 231 233 238 243 246 249 252 256 259 262 265 269 271 274 276 277 279 282 284 283 283 284 287 290 294 298 300 303 305 308 309 309 311 311 312 312 312 311 312 311 306 302 301 302 303 306
230 nan nan nan nan nan nan nan nan 241 246 240 234 232 237 238 239 240 239 236 228 226 228 229 233 241 247 252 255 249 247 nan 234 243 243 241 241 235 230 230 231 234 241 247 250 253 252 255 259 263 265 265 269 273 275 277 279 281 280 279 280 282 284 287 290 295 298 300 303 306 306 305 307 309 310 311 311 310 308 304 301 298 300 301 304 309
232 234 nan nan nan nan nan nan nan 241 244 240 240 243 247 244 245 242 234 229 231 229 232 235 237 240 245 251 253 245 241 242 244 243 243 243 244 240 237 239 240 240 242 246 251 256 259 259 261 263 263 266 269 271 273 275 276 277 277 277 277 279 280 284 289 293 296 299 301 301 301 302 304 305 305 308 309 304 305 302 299 299 303 304 307 313
230 nan nan nan nan nan nan nan nan nan 247 241 242 257 250 239 236 232 226 227 237 234 234 238 241 243 245 252 253 250 248 245 246 245 244 246 246 246 245 244 243 245 247 250 249 251 256 260 264 266 267 267 268 268 270 273 273 272 272 273 276 278 282 287 290 293 294 295 297 297 297 298 302 303 302 304 307 308 306 302 302 302 304 305 307 312
226 nan nan nan nan nan nan nan nan 250 251 251 249 248 247 238 229 228 229 230 236 234 236 242 242 244 248 252 257 254 249 246 243 245 246 245 244 245 245 244 244 245 248 250 251 254 256 259 261 263 263 263 264 265 267 268 268 269 271 275 278 282 285 288 290 290 290 291 293 294 293 294 299 302 301 304 306 307 307 304 304 303 303 304 307 309
214 217 220 229 243 nan nan nan 249 252 253 253 252 253 247 237 231 231 232 234 233 236 233 240 243 243 243 247 249 251 248 245 246 247 248 247 246 245 243 242 242 244 246 249 252 254 257 259 259 258 257 256 257 257 259 262 268 274 276 278 281 284 286 287 288 287 286 287 290 291 291 293 297 299 300 301 306 308 308 305 302 302 301 303 306 308
222 217 224 225 236 239 241 243 250 250 252 252 251 248 241 233 228 230 230 234 232 234 236 237 234 234 235 235 239 239 239 240 242 241 240 238 238 237 238 237 235 237 240 244 247 250 254 255 255 255 254 253 252 250 251 259 269 274 277 279 281 283 285 287 288 287 286 287 288 290 291 294 296 296 297 301 304 306 304 302 301 300 300 304 305 307
220 217 221 226 235 nan 246 251 250 252 248 248 250 247 nan 230 227 228 230 228 227 228 233 229 225 225 223 222 226 229 232 233 234 232 232 232 233 234 234 234 234 234 237 240 241 244 246 249 250 251 252 252 252 251 254 261 265 267 272 276 279 281 284 287 287 286 285 287 289 291 293 295 294 294 294 297 299 301 302 301 301 299 300 303 303 301
223 211 220 225 230 239 241 248 245 244 245 246 245 246 nan 227 227 227 228 226 223 222 226 224 215 210 207 208 212 223 228 228 229 228 227 227 229 230 232 234 236 237 237 237 237 237 241 245 247 248 249 247 247 250 256 262 265 269 273 276 278 281 285 286 285 285 286 288 289 290 293 293 291 292 293 295 297 300 302 302 301 302 302 302 296 295
209 209 223 222 227 239 245 245 246 250 nan nan nan 248 nan 225 227 227 222 219 219 221 222 222 214 206 201 199 204 214 222 225 227 228 227 225 227 229 231 233 235 237 239 240 240 244 250 253 254 255 256 254 253 256 260 262 266 272 274 273 274 280 283 282 283 284 285 285 286 288 288 290 291 293 293 295 292 280 277 279 284 290 299 283 275 278
212 220 216 218 227 232 232 244 256 255 252 nan nan nan nan nan 222 221 220 217 214 214 218 221 216 209 204 201 204 210 216 220 223 225 226 224 225 230 233 235 237 240 242 245 249 252 255 255 256 260 262 260 259 261 263 265 269 273 274 273 275 278 279 281 283 284 283 284 285 286 288 289 290 292 295 294 287 288 285 278 278 278 281 277 265 263
214 217 212 217 218 229 224 240 247 241 245 nan nan nan nan nan nan nan 217 217 215 212 213 218 nan nan 206 201 nan nan 214 216 219 224 228 228 229 232 235 238 240 243 245 248 252 253 253 254 256 259 261 261 261 262 263 266 268 267 267 270 274 277 279 281 281 282 282 283 285 286 287 289 290 292 294 290 288 287 286 286 281 274 269 265 259 257